Voltar ao catálogo

STARLINK-5300

AtivoComunicaçõesVLEO
NORAD 55676·PAYLOAD·🇺🇸 United States

Lançado Feb 17, 2023 de Vandenberg Space Force Base

Loading…

Próximas Passagens (próximas 24 horas)

TLE

AtualizadoSource: CelesTrak SupGP

Época: Sep 15, 2026, 01:35 UTC

1 55676C 23021BA  26258.06645833 -.00028543  00000+0 -23928-2 0  2582
2 55676  70.0031  27.0061 0003008 271.4698  87.7941 14.98332492    18

Acompanhe STARLINK-5300 em tempo real com AllMySat

Download on the App Store